Regional Weather Roundup
Issued by NWS

Home | Current Version | Previous Version | Graphics & Text | Print | Product List | Glossary On
Versions: 1 2 3 4 5 6 7 8 9 10 11 12 13 14 15 16 17 18 19 20 21 22 23 24 25 26 27 28 29 30 31 32 33 34 35 36 37 38 39 40 41 42 43 44 45 46 47 48 49 50
000
ASUS43 KMKX 292200
RWRWI

WISCONSIN REGIONAL WEATHER ROUNDUP
NATIONAL WEATHER SERVICE MILWAUKEE/SULLIVAN WI
500 PM CDT WED JUL 29 2015

NOTE: "FAIR" INDICATES FEW OR NO CLOUDS BELOW 12,000 FEET WITH NO
SIGNIFICANT WEATHER AND/OR OBSTRUCTIONS TO VISIBILITY.

WIZ001-002-006>008-014>016-023>028-292300-
NORTHWEST WISCONSIN

CITY           SKY/WX    TMP DP  RH WIND       PRES   REMARKS
SUPERIOR ARPT  CLOUDY    77  58  51 W14       29.79S
ASHLAND        CLOUDY    76  58  53 W13G21    29.79F
HAYWARD        MOSUNNY   79  53  40 W13G25    29.85F
SIREN          MOSUNNY   80  53  39 W21G31    29.87S HX  80
CUMBERLAND     PTSUNNY   75  50  41 W18G29    29.90S
RICE LAKE      PTSUNNY   76  54  46 W15G25    29.91S
CHETEK         PTSUNNY  N/A N/A N/A SW12      29.90S
LADYSMITH      PTSUNNY   79  53  40 W21G29    29.90S
EAU CLAIRE     SUNNY     81  54  39 W21G33    29.90F HX  81
MENOMONIE      SUNNY     81  52  36 W17G35    29.92S HX  80
NEW RICHMOND   MOSUNNY   81  52  36 W18G31    29.92S HX  80
OSCEOLA        MOSUNNY   80  52  38 W22G30    29.94S
$$

WIZ003>005-009-010-017-018-292300-
NORTH CENTRAL WISCONSIN

CITY           SKY/WX    TMP DP  RH WIND       PRES   REMARKS
MANITOWISH WTR CLOUDY    72  55  55 W20G30    29.86S
ARBOR VITAE    MOSUNNY   77  57  50 W14G26    29.86F
WOODRUFF       MOSUNNY   77  57  50 W14G26    29.86F
RHINELANDER    CLOUDY    76  54  46 W13G25    29.88S
EAGLE RIVER    CLOUDY    74  51  42 W14G29    29.86S
LAND O LAKES   CLOUDY    74  53  47 W10G17    29.85F
PHILLIPS       PTSUNNY   76  55  47 W13G23    29.87S
TOMAHAWK       PTSUNNY   74  54  49 W8G20     29.89S
MEDFORD        MOSUNNY   76  54  45 W16G32    29.91R
MERRILL        NOT AVBL
$$

WIZ029-030-035-036-043>047-292300-
CENTRAL WISCONSIN

CITY           SKY/WX    TMP DP  RH WIND       PRES   REMARKS
WAUSAU         MOSUNNY   82  52  35 W21G32    29.87S HX  81
MOSINEE        MOSUNNY   79  52  38 W25G32    29.91R
MARSHFIELD     SUNNY     81  51  35 W17G29    29.91S HX  80
STEVENS POINT  SUNNY     80  52  38 W10G31    29.90S
WAUPACA        SUNNY     85  48  27 W15G31    29.88S HX  83
WAUTOMA        NOT AVBL
WISC RAPIDS    SUNNY     83  48  29 W23G31    29.92S HX  81
CAMP DOUGLAS   NOT AVBL
$$

WIZ011>013-019>022-031-037>040-048>050-292300-
NORTHEAST WISCONSIN

CITY           SKY/WX    TMP DP  RH WIND       PRES   REMARKS
ANTIGO         PTSUNNY   76  55  47 W17G23    29.88R
SHAWANO        SUNNY     84  51  31 W16G26    29.85R HX  82
OCONTO         SUNNY     86  53  32 W23G31    29.81S HX  84
STURGEON BAY   SUNNY     82  54  36 W18G26    29.84S HX  81
GREEN BAY      SUNNY     84  52  33 W18G31    29.84F HX  82
MANITOWOC      NOT AVBL
APPLETON       MOSUNNY   82  45  26 W22G31    29.88S HX  80
CLINTONVILLE   MOSUNNY   84  46  26 W20G30    29.85S HX  82
OSHKOSH        SUNNY     84  51  31 W9G25     29.87F HX  82
$$

WIZ032>034-041-042-053>061-292300-
SOUTHWEST WISCONSIN

CITY           SKY/WX    TMP DP  RH WIND       PRES   REMARKS
LA CROSSE      SUNNY     84  54  35 W17G25    29.95R HX  83
SPARTA         SUNNY     83  48  29 W15G25    29.95S HX  81
VIROQUA        SUNNY     80  54  40 W8G22     30.00S HX  80
BOSCOBEL       SUNNY     86  53  32 W12G22    29.98F HX  84
PRAIRIE DU CHI SUNNY     84  46  26 W17G29    29.99F HX  82
PLATTEVILLE    SUNNY     82  54  38 W13G25    30.02F HX  81
$$

WIZ056-057-062-063-064-067-068-292300-
SOUTH CENTRAL WISCONSIN

CITY           SKY/WX    TMP DP  RH WIND       PRES   REMARKS
REEDSBURG      SUNNY     84  52  32 W20G32    29.95S HX  82
BARABOO/DELLS  SUNNY     84  46  26 W14G29    29.95S HX  82
LONE ROCK      NOT AVBL
MINERAL POINT  SUNNY     82  46  28 W16G25    30.01S HX  81
MADISON        MOSUNNY   83  53  35 W9G21     29.94F HX  82
MIDDLETON      SUNNY     85  45  25 W21G29    29.97S HX  82
WATERTOWN      SUNNY     82  54  38 W14G23    29.93F HX  81
MONROE         SUNNY     82  50  32 W17G26    30.00S HX  81
JANESVILLE     MOSUNNY   84  50  30 W14G22    29.96F HX  82
$$

WIZ051-052-058>065-066-070>072-292300-
SOUTHEAST WISCONSIN

CITY           SKY/WX    TMP DP  RH WIND       PRES   REMARKS
MILWAUKEE      MOSUNNY   86  49  27 W20G28    29.91F HX  83
WAUKESHA       SUNNY     82  50  32 W16G24    29.95F HX  81
MILWAUKEE/TIMM NOT AVBL
RACINE         SUNNY     85  50  29 W10G29    29.94F HX  83
BURLINGTON     SUNNY     82  47  29 W16G25    29.95F HX  80
KENOSHA        SUNNY     83  53  35 W15G29    29.94F HX  82
FOND DU LAC    SUNNY     84  51  31 W21G29    29.89F HX  82
SHEBOYGAN      SUNNY     84  51  31 W18G30    29.88F HX  82
WEST BEND      SUNNY     82  45  26 W18G28    29.91S HX  80
JUNEAU         SUNNY     80  53  38 W16G24    29.94S HX  80
$$

LSZ147-162-292300-
LAKE SUPERIOR

STATION/POSITION TIME  TEMP    WIND        PRES    WAVE
                       AIR SEA DIR/SP/G            HT/PER
                 (UTC) (F)     (DEG/KT/KT) (MB)    (FT/S)
W MID LAKE BUOY  2050   63 55  240/ 17/ 21 1006.4R   6/ 7
DEVILS ISLAND    2100   69     230/ 21/ 24 1007.3F
PORT WING        2100   74     230/ 11/ 17 1008.8
SAXON HARBOR     2140   76                 1008.8S
$$

LMZ867-665-643>646-292300-
LAKE MICHIGAN

STATION/POSITION TIME  TEMP    WIND        PRES    WAVE
                       AIR SEA DIR/SP/G            HT/PER
                 (UTC) (F)     (DEG/KT/KT) (MB)    (FT/S)
CHAMBERS ISLAND  2100   81     220/  7/ 17 1008.5F
S GREEN BAY BUOY 2100   73 69  240/ 16/ 17 1011.2
N MID LAKE BUOY  2050   74 70  210/ 16/ 19 1008.0F   3/ 5
NORTHPORT PIER   2100   83     250/  8/ 16 1008.5S
SISTER BAY       2144   81     240/ 14/ 16   N/A
ALGOMA LAKESHORE 2112          270/ 14/ 18   N/A
KEWAUNEE LAKESHO 2100   83                 1009.9
SHEBOYGAN LAKESH 2100   83     270/ 17/ 22 1011.5F
PORT WASHINGTON  2111   87     260/ 10/ 25 1012.5F
ATWATER BUOY     2100   78     270/ 14/ 17 1014.2F
MILWAUKEE LAKESH 2100   83     280/ 18/ 25   N/A
KENOSHA   LAKESH 2100   84     260/ 17/ 24 1013.5F
$$

TC  - TEMPERATURE IN CELSIUS
VSB - VISIBILITY IN STATUTE MILES
WCI - WIND CHILL INDEX
HX  - HEAT INDEX



USA.gov is the U.S. government's official web portal to all federal, state and local government web resources and services.